Regional Weather Roundup
Issued by NWS

Home | Current Version | Previous Version | Graphics & Text | Print | Product List | Glossary On
Versions: 1 2 3 4 5 6 7 8 9 10 11 12 13 14 15 16 17 18 19 20 21 22 23 24 25 26 27 28 29 30 31 32 33 34 35 36 37 38 39 40 41 42 43 44 45 46 47 48 49 50
000
ASUS43 KLMK 221702
RWRKY
KENTUCKY REGIONAL WEATHER ROUNDUP
NATIONAL WEATHER SERVICE LOUISVILLE KY
100 PM EDT WED MAR 22 2017

NOTE "FAIR" INDICATES FEW OR NO CLOUDS BELOW 12,000 FEET
WITH NO SIGNIFICANT WEATHER AND/OR OBSTRUCTIONS TO VISIBILITY.

KYZ001>023-026-027-061>063-070>075-221800-
WESTERN AND SOUTH CENTRAL KENTUCKY

CITY           SKY/WX    TMP DP  RH WIND       PRES   REMARKS
PADUCAH        SUNNY     51  25  36 NE18      30.40F
HENDERSON      SUNNY     43  21  42 NE14      30.44F
OWENSBORO      SUNNY     46  20  35 NE14      30.45S
HOPKINSVILLE   NOT AVBL
BOWLING GREEN  SUNNY     50  18  28 NE16      30.41R
GLASGOW        NOT AVBL
$$

KYZ024-025-028>034-038-045-046-053-221800-
NORTH CENTRAL KENTUCKY

CITY           SKY/WX    TMP DP  RH WIND       PRES   REMARKS
LOUISVILLE/SDF MOSUNNY   45  12  26 N16       30.47R
LOUISVILLE/LOU SUNNY     44  16  32 N9        30.47S
FORT KNOX      SUNNY     45  13  28 N13G18    30.42R
$$

KYZ035>037-039>044-047>052-055>060-089>105-221800-
NORTHEAST KENTUCKY

CITY           SKY/WX    TMP DP  RH WIND       PRES   REMARKS
LEXINGTON      SUNNY     42  17  36 NE15G21   30.44R
COVINGTON      SUNNY     37  16  42 NE16      30.49S WCI  28
FRANKFORT      SUNNY     43  12  28 NE9       30.44S
$$

KYZ054-064>069-076>088-106>120-221800-
SOUTHEAST KENTUCKY

CITY           SKY/WX    TMP DP  RH WIND       PRES   REMARKS
JACKSON        SUNNY     44  20  38 VRB5      30.37S
LONDON         SUNNY     47  14  26 N13G21    30.35S
SOMERSET       SUNNY     45  19  36 N17       30.39S
MIDDLESBORO    SUNNY     52  23  33 N7G16     30.32R
MONTICELLO     MOSUNNY   45  20  36 N15G25    30.39R
$$




USA.gov is the U.S. government's official web portal to all federal, state and local government web resources and services.